WetterOnline ( https://www.wetteronline.de )

Wetter aktuell PLZ Bereich 71543

Aktuelles Wetter: Kaisersbach-Cronhütte (489m)

6-stündlich | Neueste Meldungen
Ortszeit Temperatur Wetter
Mo, 23.09. 14:00 13.6° C bedeckt
Mo, 23.09. 8:00 12.3° C leichter Regen
Mo, 23.09. 2:00 11.1° C bewölkt
So, 22.09. 20:00 15.9° C bedeckt
So, 22.09. 14:00 21.3° C wolkig
So, 22.09. 8:00 4.8° C wolkenlos
So, 22.09. 2:00 8.0° C wolkenlos
Sa, 21.09. 20:00 14.2° C wolkenlos
Ortszeit Temperatur Wetter
Mo, 23.09. 15:00 14.3° C wolkig
Mo, 23.09. 14:50 14.3° C wolkig
Mo, 23.09. 14:40 14.0° C bedeckt
Mo, 23.09. 14:30 14.3° C bedeckt
Mo, 23.09. 14:20 14.3° C bedeckt
Mo, 23.09. 14:10 14.0° C bedeckt
Mo, 23.09. 14:00 13.6° C bedeckt
Mo, 23.09. 13:30 13.4° C bedeckt
Mo, 23.09. 13:00 13.0° C Sprühregen
Mo, 23.09. 12:30 12.9° C Sprühregen
Mo, 23.09. 12:00 12.8° C Sprühregen
Ortszeit Relative Feuchte Sichtweite
Mo, 23.09. 14:00 90% 40 km
Mo, 23.09. 8:00 95% 7 km
Mo, 23.09. 2:00 91% 35 km
So, 22.09. 20:00 74% 70 km
So, 22.09. 14:00 40% 45 km
So, 22.09. 8:00 95% 29 km
So, 22.09. 2:00 86% 70 km
Sa, 21.09. 20:00 59% 70 km
Ortszeit Relative Feuchte Sichtweite
Mo, 23.09. 15:00 89% 40 km
Mo, 23.09. 14:50 89% -
Mo, 23.09. 14:40 88% -
Mo, 23.09. 14:30 90% 35 km
Mo, 23.09. 14:20 90% -
Mo, 23.09. 14:10 91% -
Mo, 23.09. 14:00 90% 40 km
Mo, 23.09. 13:30 92% 35 km
Mo, 23.09. 13:00 94% 25 km
Mo, 23.09. 12:30 94% 4.4 km
Mo, 23.09. 12:00 96% 5.0 km
Ortszeit Niederschlagsmenge Niederschlagsart
Mo, 23.09. 14:00 7 l/m2 in 6 Std. Regen
Mo, 23.09. 8:00 11 l/m2 in 12 Std. Regen
Mo, 23.09. 2:00 0.0 l/m2 in 6 Std. -
So, 22.09. 20:00 0.1 l/m2 in 12 Std. Regen
So, 22.09. 14:00 0.0 l/m2 in 6 Std. -
So, 22.09. 8:00 0.0 l/m2 in 12 Std. -
So, 22.09. 2:00 0.0 l/m2 in 6 Std. -
Sa, 21.09. 20:00 0.0 l/m2 in 12 Std. -
Ortszeit Niederschlagsmenge Niederschlagsart
Mo, 23.09. 15:00 0.1 l/m2 in 1 Std. Sprühregen
Mo, 23.09. 14:50 keine Meldung -
Mo, 23.09. 14:40 keine Meldung -
Mo, 23.09. 14:30 0.1 l/m2 in 1 Std. Schnee
Mo, 23.09. 14:20 keine Meldung -
Mo, 23.09. 14:10 keine Meldung -
Mo, 23.09. 14:00 0.1 l/m2 in 1 Std. Regen
Mo, 23.09. 13:30 0.1 l/m2 in 1 Std. Schnee
Mo, 23.09. 13:00 0.8 l/m2 in 1 Std. Regen
Mo, 23.09. 12:30 0.3 l/m2 in 1 Std. -
Mo, 23.09. 12:00 0.9 l/m2 in 1 Std. Regen
Ortszeit Stärke Spitze Richtung
km/h Bft. km/h Grad Sektor
Mo, 23.09. 14:00 11 2 24 270° W
Mo, 23.09. 8:00 13 3 41 270° W
Mo, 23.09. 2:00 0 0 4 - -
So, 22.09. 20:00 2 1 13 280° W
So, 22.09. 14:00 6 1 11 110° O
So, 22.09. 8:00 0 0 7 - -
So, 22.09. 2:00 4 1 7 310° NW
Sa, 21.09. 20:00 2 1 31 300° NW
Ortszeit Stärke Spitze Richtung
km/h Bft. km/h Grad Sektor
Mo, 23.09. 15:00 9 2 20 260° W
Mo, 23.09. 14:50 9 2 - 260° W
Mo, 23.09. 14:40 11 2 - 250° W
Mo, 23.09. 14:30 11 2 22 270° W
Mo, 23.09. 14:20 11 2 - 270° W
Mo, 23.09. 14:10 9 2 - 280° W
Mo, 23.09. 14:00 11 2 20 270° W
Mo, 23.09. 13:30 9 2 19 270° W
Mo, 23.09. 13:00 13 3 22 270° W
Mo, 23.09. 12:30 7 2 18 260° W
Mo, 23.09. 12:00 7 2 14 250° W
Ortszeit Untergrenze Bedeckung Gattung
total tief tief mittel hoch
Mo, 23.09. 14:00 300 m 8/8 8/8 - - -
Mo, 23.09. 8:00 150 m 7/8 7/8 - - -
Mo, 23.09. 2:00 2700 m 8/8 4/8 - - -
So, 22.09. 20:00 3600 m 8/8 8/8 - - -
So, 22.09. 14:00 3600 m 8/8 8/8 - - -
So, 22.09. 8:00 - 0/8 0/8 - - -
So, 22.09. 2:00 - 0/8 0/8 - - -
Sa, 21.09. 20:00 - 0/8 0/8 - - -
Ortszeit Bedeckungsgrad in Achtel und Wolkenuntergrenze
Mo, 23.09. 15:00 3(450m) 8(3000m) 8(4500m)
Mo, 23.09. 14:50 3(450m) 8(3000m) 8(4500m)
Mo, 23.09. 14:40 4(300m) 6(750m) 8(1230m)
Mo, 23.09. 14:30 4(330m) 7(1080m) 8(1260m)
Mo, 23.09. 14:20 4(330m) 7(1080m) 8(1260m)
Mo, 23.09. 14:10 3(300m) 7(780m) 8(1020m)
Mo, 23.09. 14:00 5(300m) 7(540m) 8(1020m)
Mo, 23.09. 13:30 7(240m) 8(540m) 8(810m)
Mo, 23.09. 13:00 6(180m) 7(300m)
Mo, 23.09. 12:30 7(150m) 8(270m)
Mo, 23.09. 12:00 6(180m) 7(360m)
Ortszeit Luftdruck NN (hPa) Tendenz (hPa in 3 Std.)
Mo, 23.09. 14:00 1017 - 0,2
Mo, 23.09. 8:00 1016 + 2,2
Mo, 23.09. 2:00 1012 + 0,9
So, 22.09. 20:00 1010 0,0
So, 22.09. 14:00 1010 - 1,3
So, 22.09. 8:00 1015 - 0,7
So, 22.09. 2:00 1016 - 1,6
Sa, 21.09. 20:00 1017 - 0,7
Ortszeit Luftdruck NN (hPa) Tendenz (hPa in 3 Std.)
Mo, 23.09. 15:00 1017 - 0,2
Mo, 23.09. 14:50 1017 keine Meldung
Mo, 23.09. 14:40 1017 keine Meldung
Mo, 23.09. 14:30 1017 - 0,3
Mo, 23.09. 14:20 1017 keine Meldung
Mo, 23.09. 14:10 1017 keine Meldung
Mo, 23.09. 14:00 1017 - 0,2
Mo, 23.09. 13:30 1017 0,0
Mo, 23.09. 13:00 1017 + 0,3
Mo, 23.09. 12:30 1017 + 0,7
Mo, 23.09. 12:00 1017 + 1,0
Ortszeit Schneehöhe (cm)
Mo, 23.09. 14:00 -
Mo, 23.09. 8:00 -
Mo, 23.09. 2:00 -
So, 22.09. 20:00 -
So, 22.09. 14:00 -
So, 22.09. 8:00 -
So, 22.09. 2:00 -
Sa, 21.09. 20:00 -
Ortszeit Schneehöhe (cm)
Mo, 23.09. 15:00 -
Mo, 23.09. 14:50 -
Mo, 23.09. 14:40 -
Mo, 23.09. 14:30 -
Mo, 23.09. 14:20 -
Mo, 23.09. 14:10 -
Mo, 23.09. 14:00 -
Mo, 23.09. 13:30 -
Mo, 23.09. 13:00 -
Mo, 23.09. 12:30 -
Mo, 23.09. 12:00 -
Link zu dieser Seite / Seite empfehlen

Das Wetter in ...